THORAD DELTA 1 DEB, 8435

Orbit data source: Space-Track

THORAD DELTA 1 DEB, 8435 is space debris in SSO originally from a launch on Fri, 15 Nov 1974 UTC launched from the Air Force Western Test Range (AFWTR). Debris objects in space refer to the collection of defunct objects orbiting the Earth. Examples of debris include non-operational satellites, rocket bodies, and fragments generated from explosions, collisions, or faulty payload assembly.

Loading next visibility...
Identifier
8435, 1974-089CL
Orbit
SSO
Country
Flag of USUS
Related business
Manufacturer
Unknown
Mission
Spacecraft
Bus & Motor
Unknown
Mass
Unknown
Launch date (UTC)
1974-11-15 (52 years ago)
Launch vehicle
Unknown
Launch site
Air Force Western Test Range (AFWTR)
Object type
Payload
Rocket body
Debris
Shape & HBR
Unknown shape, 0.1 m
Radar Cross Section
Medium (>0.1 m² and <1 m²)

Expand to show TLE details & history
Last TLE update: 1 week ago

TLE from 1 week ago
0 THORAD DELTA 1 DEB
1 08435U 74089CL  26152.57487317 -.00000012  00000-0  25678-3 0  9991
2 08435 101.5663  18.6889 0164741 202.2079 219.0460 12.20829791297336
Epoch: 2026-06-01T13:47Z
TLE epoch observation values (Epoch: 2026-06-01T13:47:49.041Z)
Latitude
58.20943°
Longitude
-97.51104°
Altitude
1,701.343 km
Speed
6.985 km/s
True Right ascension
23h 58m 00s
True Declination
58° 04' 24"
Sunlit
Object was in daylight at epoch
Visualization orbit readout
Latitude
Unknown
Longitude
Unknown
Altitude
Unknown
Speed
Unknown
Apparent Right ascension
Unknown
Apparent Declination
Unknown
Sunlit
N/A
Visualization observer readout
Local Sidereal Time
18:32:00
Azimuth
Unknown
Elevation
Unknown
Doppler factor
Unknown
Orbital elements
Apogee altitude
1,717.713 km
Perigee altitude
1,455.293 km
Semi-major axis
7,964.64 km
Eccentricity
0.01647
Inclination
101.5663°
RAAN
18.6889°
Arg. of periapsis
202.2079°
True anomaly
217.87561°
Mean anomaly
219.046°
Eccentric anomaly
218.45894°
Mean motion
3.05347 °/min
Orbital period
117.9 mins
BSTAR
0.00025678

Documentation

Showing up to 5 results
|